This is the latest recevied weather packets stored in our database for station/object W2MMD-13. If no packets are shown the sender has not sent any weather packets the latest 10 day(s).
| Time | Temp. | Humidity | Pressure | Rain* | Wind** | Luminosity | Snow |
|---|---|---|---|---|---|---|---|
| 1777919319 | 22.22° C | 35% | - | 0 mm | - | - | - |
| 1777918719 | 22.22° C | 35% | - | 0 mm | - | - | - |
| 1777918131 | 22.22° C | 36% | - | 0 mm | - | - | - |
| 1777918119 | 22.22° C | 36% | - | 0 mm | - | - | - |
| 1777917535 | 21.67° C | 35% | - | 0 mm | - | - | - |
| 1777916919 | 21.67° C | 36% | - | 0 mm | - | - | - |
| 1777916319 | 21.11° C | 37% | - | 0 mm | - | - | - |
| 1777915719 | 21.67° C | 38% | - | 0 mm | - | - | - |
| 1777915119 | 21.67° C | 36% | - | 0 mm | - | - | - |
| 1777914519 | 20.56° C | 36% | - | 0 mm | - | - | - |
| 1777913931 | 21.11° C | 37% | - | 0 mm | - | - | - |
| 1777913920 | 21.11° C | 36% | - | 0 mm | - | - | - |
| 1777913375 | 21.11° C | 38% | - | 0 mm | - | - | - |
| 1777913320 | 21.11° C | 38% | - | 0 mm | - | - | - |
| 1777912720 | 20° C | 36% | - | 0 mm | - | - | - |
| 1777912131 | 20° C | 38% | - | 0 mm | - | - | - |
| 1777912120 | 20° C | 38% | - | 0 mm | - | - | - |
| 1777911557 | 20.56° C | 38% | - | 0 mm | - | - | - |
| 1777911520 | 20.56° C | 38% | - | 0 mm | - | - | - |
| 1777910920 | 20° C | 38% | - | 0 mm | - | - | - |
| 1777910320 | 20° C | 38% | - | 0 mm | - | - | - |
| 1777909720 | 20.56° C | 38% | - | 0 mm | - | - | - |
| 1777909120 | 20° C | 43% | - | 0 mm | - | - | - |
| 1777908520 | 20° C | 43% | - | 0 mm | - | - | - |
| 1777907931 | 19.44° C | 46% | - | 0 mm | - | - | - |
* Rain latest hour (hover to see other rain measurements)
** Current wind speed in m/s (hover to see current wind gust speed)